H1 CPF 1 NER 2013 8 3 9 7151 glonass127 H2 1106403 9127 37869 2013 8 3 0 0 0 2013 8 6 23 45 0 900 1 1 0 0 0 H9 10 0 56507 0.00000 0 -6460825.083 24347198.952 -4036005.979 10 0 56507 900.00000 0 -6216900.022 23678363.340 -7148671.323 10 0 56507 1800.00000 0 -5992255.043 22619754.680 -10122372.666 10 0 56507 2700.00000 0 -5840003.059 21193065.030 -12899137.685 10 0 56507 3600.00000 0 -5808507.994 19432299.255 -15424737.485 10 0 56507 4500.00000 0 -5939112.089 17382504.305 -17649762.833 10 0 56507 5400.00000 0 -6264164.258 15098045.377 -19530610.820 10 0 56507 6300.00000 0 -6805435.936 12640499.337 -21030360.783 10 0 56507 7200.00000 0 -7572994.493 10076252.925 -22119520.358 10 0 56507 8100.00000 0 -8564584.974 7473906.178 -22776625.186 10 0 56507 9000.00000 0 -9765549.170 4901590.370 -22988678.769 10 0 56507 9900.00000 0 -11149287.701 2424313.883 -22751422.324 10 0 56507 10800.00000 0 -12678247.314 101448.452 -22069428.209 10 0 56507 11700.00000 0 -14305392.600 -2015537.661 -20956014.261 10 0 56507 12600.00000 0 -15976100.039 -3885003.446 -19432980.444 10 0 56507 13500.00000 0 -17630393.826 -5476634.752 -17530173.105 10 0 56507 14400.00000 0 -19205427.847 -6772456.953 -15284886.034 10 0 56507 15300.00000 0 -20638107.393 -7767319.119 -12741111.238 10 0 56507 16200.00000 0 -21867738.178 -8468831.221 -9948655.694 10 0 56507 17100.00000 0 -22838589.217 -8896759.685 -6962143.263 10 0 56507 18000.00000 0 -23502260.119 -9081910.025 -3839923.539 10 0 56507 18900.00000 0 -23819752.286 -9064547.389 -642911.162 10 0 56507 19800.00000 0 -23763156.728 -8892425.462 2566619.664 10 0 56507 20700.00000 0 -23316888.243 -8618510.476 5726260.007 10 0 56507 21600.00000 0 -22478415.557 -8298499.474 8774685.272 10 0 56507 22500.00000 0 -21258458.836 -7988239.854 11652844.083 10 0 56507 23400.00000 0 -19680648.700 -7741160.351 14305093.797 10 0 56507 24300.00000 0 -17780663.447 -7605822.079 16680261.462 10 0 56507 25200.00000 0 -15604882.653 -7623692.134 18732611.105 10 0 56507 26100.00000 0 -13208614.913 -7827231.982 20422700.680 10 0 56507 27000.00000 0 -10653974.268 -8238379.012 21718114.617 10 0 56507 27900.00000 0 -8007493.339 -8867482.867 22594060.557 10 0 56507 28800.00000 0 -5337571.168 -9712739.126 23033821.379 10 0 56507 29700.00000 0 -2711859.480 -10760142.562 23029056.241 10 0 56507 30600.00000 0 -194692.853 -11983961.160 22579946.749 10 0 56507 31500.00000 0 2155333.866 -13347711.165 21695186.677 10 0 56507 32400.00000 0 4287543.958 -14805593.442 20391815.958 10 0 56507 33300.00000 0 6161025.870 -16304333.014 18694901.818 10 0 56507 34200.00000 0 7746074.862 -17785347.371 16637072.197 10 0 56507 35100.00000 0 9025171.342 -19187155.797 14257908.702 10 0 56507 36000.00000 0 9993456.273 -20447931.817 11603208.642 10 0 56507 36900.00000 0 10658684.030 -21508094.493 8724127.951 10 0 56507 37800.00000 0 11040654.119 -22312831.971 5676219.009 10 0 56507 38700.00000 0 11170144.406 -22814452.575 2518379.556 10 0 56507 39600.00000 0 11087389.007 -22974464.868 -688268.907 10 0 56507 40500.00000 0 10840163.200 -22765298.371 -3881553.112 10 0 56507 41400.00000 0 10481554.553 -22171590.759 -6999448.643 10 0 56507 42300.00000 0 10067513.196 -21190984.705 -9981286.110 10 0 56507 43200.00000 0 9654284.320 -19834397.659 -12768939.184 10 0 56507 44100.00000 0 9295831.769 -18125749.769 -15307970.529 10 0 56507 45000.00000 0 9041362.778 -16101157.991 -17548711.892 10 0 56507 45900.00000 0 8933060.425 -13807627.260 -19447255.676 10 0 56507 46800.00000 0 9004122.102 -11301291.184 -20966336.753 10 0 56507 47700.00000 0 9277189.748 -8645274.470 -22076085.267 10 0 56507 48600.00000 0 9763241.052 -5907265.793 -22754633.822 10 0 56507 49500.00000 0 10460991.256 -3156902.685 -22988565.412 10 0 56507 50400.00000 0 11356833.117 -463078.602 -22773191.721 10 0 56507 51300.00000 0 12425319.325 2108714.110 -22112655.231 10 0 56507 52200.00000 0 13630168.003 4498892.880 -21019852.271 10 0 56507 53100.00000 0 14925749.007 6656038.922 -19516178.189 10 0 56507 54000.00000 0 16258987.690 8538801.376 -17631099.788 10 0 56507 54900.00000 0 17571604.498 10117371.476 -15401564.015 10 0 56507 55800.00000 0 18802593.998 11374465.355 -12871255.666 10 0 56507 56700.00000 0 19890836.640 12305775.579 -10089720.201 10 0 56507 57600.00000 0 20777730.882 12919874.642 -7111370.761 10 0 56507 58500.00000 0 21409732.747 13237577.393 -3994401.025 10 0 56507 59400.00000 0 21740694.314 13290792.817 -799627.381 10 0 56507 60300.00000 0 21733901.884 13120917.349 2410714.895 10 0 56507 61200.00000 0 21363728.037 12776841.227 5574196.057 10 0 56507 62100.00000 0 20616828.949 12312655.407 8629411.727 10 0 56507 63000.00000 0 19492838.138 11785158.490 11517173.736 10 0 56507 63900.00000 0 18004529.586 11251270.612 14181648.705 10 0 56507 64800.00000 0 16177445.545 10765464.126 16571423.051 10 0 56507 65700.00000 0 14049006.670 10377319.025 18640475.261 10 0 56507 66600.00000 0 11667143.299 10129304.791 20349038.550 10 0 56507 67500.00000 0 9088505.876 10054880.024 21664339.775 10 0 56507 68400.00000 0 6376329.004 10176987.321 22561203.037 10 0 56507 69300.00000 0 3598037.048 10507004.162 23022508.930 10 0 56507 70200.00000 0 822688.803 11044191.649 23039503.074 10 0 56507 71100.00000 0 -1881635.497 11775662.696 22611949.895 10 0 56507 72000.00000 0 -4450399.609 12676870.232 21748129.987 10 0 56507 72900.00000 0 -6825026.331 13712595.258 20464681.668 10 0 56507 73800.00000 0 -8955065.449 14838394.524 18786289.501 10 0 56507 74700.00000 0 -10800027.543 16002449.172 16745224.794 10 0 56507 75600.00000 0 -12330809.891 17147739.445 14380745.264 10 0 56507 76500.00000 0 -13530656.712 18214457.121 11738363.256 10 0 56507 77400.00000 0 -14395614.308 19142557.148 8868994.211 10 0 56507 78300.00000 0 -14934461.933 19874343.682 5827999.307 10 0 56507 79200.00000 0 -15168120.321 20356983.435 2674138.320 10 0 56507 80100.00000 0 -15128561.162 20544841.270 -531548.985 10 0 56507 81000.00000 0 -14857261.593 20401539.389 -3726912.887 10 0 56507 81900.00000 0 -14403267.023 19901651.988 -6849893.489 10 0 56507 82800.00000 0 -13820942.480 19031961.663 -9839727.207 10 0 56507 83700.00000 0 -13167506.446 17792221.597 -12638136.277 10 0 56507 84600.00000 0 -12500451.120 16195387.917 -15190477.347 10 0 56507 85500.00000 0 -11874958.597 14267308.838 -17446825.361 10 0 56508 0.00000 0 -11341423.448 12045880.226 -19362969.969 10 0 56508 900.00000 0 -10943188.572 9579699.684 -20901303.341 10 0 56508 1800.00000 0 -10714591.429 6926274.257 -22031579.534 10 0 56508 2700.00000 0 -10679407.485 4149854.115 -22731529.248 10 0 56508 3600.00000 0 -10849757.273 1318983.238 -22987315.796 10 0 56508 4500.00000 0 -11225526.818 -1496130.629 -22793821.834 10 0 56508 5400.00000 0 -11794327.041 -4226315.911 -22154760.124 10 0 56508 6300.00000 0 -12531995.104 -6806092.963 -21082605.251 10 0 56508 7200.00000 0 -13403616.750 -9176173.188 -19598347.329 10 0 56508 8100.00000 0 -14365025.979 -11285695.825 -17731072.609 10 0 56508 9000.00000 0 -15364717.439 -13094108.043 -15517379.831 10 0 56508 9900.00000 0 -16346088.901 -14572609.392 -13000644.900 10 0 56508 10800.00000 0 -17249916.816 -15705100.827 -10230149.829 10 0 56508 11700.00000 0 -18016957.982 -16488600.051 -7260094.905 10 0 56508 12600.00000 0 -18590565.133 -16933108.151 -4148515.599 10 0 56508 13500.00000 0 -18919204.123 -17060936.308 -956127.627 10 0 56508 14400.00000 0 -18958765.167 -16905524.566 2254875.205 10 0 56508 15300.00000 0 -18674570.122 -16509806.184 5422044.972 10 0 56508 16200.00000 0 -18042991.489 -15924190.127 8483900.240 10 0 56508 17100.00000 0 -17052615.991 -15204249.850 11381118.820 10 0 56508 18000.00000 0 -15704905.422 -14408218.055 14057679.357 10 0 56508 18900.00000 0 -14014328.953 -13594394.277 16461930.336 10 0 56508 19800.00000 0 -12007963.286 -12818574.665 18547567.220 10 0 56508 20700.00000 0 -9724579.104 -12131611.235 20274500.769 10 0 56508 21600.00000 0 -7213253.038 -11577201.455 21609602.244 10 0 56508 22500.00000 0 -4531563.281 -11189998.610 22527313.814 10 0 56508 23400.00000 0 -1743443.373 -10994119.560 23010115.028 10 0 56508 24300.00000 0 1083218.244 -11002109.823 23048838.814 10 0 56508 25200.00000 0 3879135.719 -11214407.136 22642832.901 10 0 56508 26100.00000 0 6576237.213 -11619324.420 21799964.832 10 0 56508 27000.00000 0 9110225.465 -12193552.217 20536471.116 10 0 56508 27900.00000 0 11422984.804 -12903159.861 18876653.129 10 0 56508 28800.00000 0 13464737.924 -13705054.643 16852424.708 10 0 56508 29700.00000 0 15195865.540 -14548839.775 14502718.504 10 0 56508 30600.00000 0 16588315.223 -15378995.623 11872760.344 10 0 56508 31500.00000 0 17626541.670 -16137295.236 9013223.262 10 0 56508 32400.00000 0 18307939.371 -16765355.035 5979274.938 10 0 56508 33300.00000 0 18642748.859 -17207215.291 2829534.557 10 0 56508 34200.00000 0 18653439.074 -17411842.795 -375042.748 10 0 56508 35100.00000 0 18373589.999 -17335450.471 -3572333.898 10 0 56508 36000.00000 0 17846320.628 -16943535.214 -6700246.694 10 0 56508 36900.00000 0 17122326.616 -16212546.144 -9697926.526 10 0 56508 37800.00000 0 16257608.975 -15131110.166 -12506947.287 10 0 56508 38700.00000 0 15310988.820 -13700759.784 -15072462.545 10 0 56508 39600.00000 0 14341513.007 -11936128.788 -17344293.173 10 0 56508 40500.00000 0 13405860.851 -9864603.848 -19277928.615 10 0 56508 41400.00000 0 12555862.817 -7525443.139 -20835420.396 10 0 56508 42300.00000 0 11836237.829 -4968396.202 -21986148.356 10 0 56508 43200.00000 0 11282646.940 -2251880.715 -22707442.749 10 0 56508 44100.00000 0 10920147.835 559208.712 -22985048.226 10 0 56508 45000.00000 0 10762117.526 3395968.374 -22813419.010 10 0 56508 45900.00000 0 10809690.406 6188126.352 -22195838.305 10 0 56508 46800.00000 0 11051736.501 8866745.098 -21144358.726 10 0 56508 47700.00000 0 11465381.182 11366871.330 -19679564.523 10 0 56508 48600.00000 0 12017043.975 13630021.084 -17830160.407 10 0 56508 49500.00000 0 12663951.339 15606394.828 -15632395.554 10 0 56508 50400.00000 0 13356057.631 17256729.167 -13129335.262 10 0 56508 51300.00000 0 14038290.680 18553707.669 -10369996.039 10 0 56508 52200.00000 0 14653024.389 19482872.578 -7408362.908 10 0 56508 53100.00000 0 15142671.223 20043000.890 -4302310.437 10 0 56508 54000.00000 0 15452282.656 20245931.683 -1112450.732 10 0 56508 54900.00000 0 15532045.862 20115855.219 2099066.960 10 0 56508 55800.00000 0 15339570.092 19688097.349 5269779.684 10 0 56508 56700.00000 0 14841865.989 19007454.075 8338132.060 10 0 56508 57600.00000 0 14016934.820 18126149.746 11244670.871 10 0 56508 58500.00000 0 12854901.965 17101507.527 13933189.591 10 0 56508 59400.00000 0 11358648.584 15993432.012 16351801.345 10 0 56508 60300.00000 0 9543916.796 14861810.563 18453920.899 10 0 56508 61200.00000 0 7438885.690 13763942.232 20199138.608 10 0 56508 62100.00000 0 5083237.164 12752100.843 21553971.891 10 0 56508 63000.00000 0 2526751.125 11871332.224 22492482.434 10 0 56508 63900.00000 0 -172511.580 11157575.206 22996749.829 10 0 56508 64800.00000 0 -2950364.179 10636182.136 23057195.023 10 0 56508 65700.00000 0 -5738899.467 10320898.081 22672749.321 10 0 56508 66600.00000 0 -8469048.679 10213339.201 21850867.036 10 0 56508 67500.00000 0 -11073190.901 10302990.617 20607382.192 10 0 56508 68400.00000 0 -13487708.288 10567723.270 18966211.826 10 0 56508 69300.00000 0 -15655384.354 10974808.507 16958910.695 10 0 56508 70200.00000 0 -17527548.675 11482389.113 14624084.363 10 0 56508 71100.00000 0 -19065881.118 12041346.941 12006669.812 10 0 56508 72000.00000 0 -20243801.782 12597491.043 9157095.093 10 0 56508 72900.00000 0 -21047389.168 13093976.600 6130331.676 10 0 56508 73800.00000 0 -21475787.785 13473854.930 2984855.360 10 0 56508 74700.00000 0 -21541086.851 13682648.562 -218466.165 10 0 56508 75600.00000 0 -21267673.419 13670843.443 -3417539.249 10 0 56508 76500.00000 0 -20691085.015 13396192.727 -6550242.149 10 0 56508 77400.00000 0 -19856407.927 12825733.563 -9555631.922 10 0 56508 78300.00000 0 -18816286.779 11937429.409 -12375136.708 10 0 56508 79200.00000 0 -17628627.917 10721365.463 -14953709.441 10 0 56508 80100.00000 0 -16354092.794 9180443.201 -17240919.153 10 0 56508 81000.00000 0 -15053487.110 7330540.921 -19191957.012 10 0 56508 81900.00000 0 -13785156.619 5200129.741 -20768535.600 10 0 56508 82800.00000 0 -12602500.833 2829357.903 -21939661.806 10 0 56508 83700.00000 0 -11551711.299 268639.120 -22682266.344 10 0 56508 84600.00000 0 -10669831.809 -2423197.812 -22981675.738 10 0 56508 85500.00000 0 -9983224.353 -5181121.469 -22831915.933 10 0 56509 0.00000 0 -9506507.097 -7936379.919 -22235840.387 10 0 56509 900.00000 0 -9242010.533 -10619148.138 -21205079.106 10 0 56509 1800.00000 0 -9179774.532 -13161228.626 -19759809.590 10 0 56509 2700.00000 0 -9298087.274 -15498690.728 -17928353.749 10 0 56509 3600.00000 0 -9564540.821 -17574337.330 -15746609.686 10 0 56509 4500.00000 0 -9937557.817 -19339893.893 -13257330.365 10 0 56509 5400.00000 0 -10368321.914 -20757827.935 -10509264.886 10 0 56509 6300.00000 0 -10803027.589 -21802722.840 -7556181.023 10 0 56509 7200.00000 0 -11185351.246 -22462149.403 -4455790.369 10 0 56509 8100.00000 0 -11459036.360 -22737000.511 -1268599.309 10 0 56509 9000.00000 0 -11570480.960 -22641277.672 1943289.634 10 0 56509 9900.00000 0 -11471216.445 -22201341.601 5117400.699 10 0 56509 10800.00000 0 -11120172.115 -21454661.956 8192106.838 10 0 56509 11700.00000 0 -10485629.765 -20448122.232 11107826.150 10 0 56509 12600.00000 0 -9546786.717 -19235954.077 13808169.311 10 0 56509 13500.00000 0 -8294862.778 -17877390.127 16241016.444 10 0 56509 14400.00000 0 -6733706.277 -16434135.141 18359503.890 10 0 56509 15300.00000 0 -4879875.500 -14967761.801 20122903.726 10 0 56509 16200.00000 0 -2762193.555 -13537139.379 21497381.445 10 0 56509 17100.00000 0 -420796.142 -12196001.077 22456619.897 10 0 56509 18000.00000 0 2094287.852 -10990749.261 22982300.081 10 0 56509 18900.00000 0 4724964.594 -9958587.303 23064432.007 10 0 56509 19800.00000 0 7407238.049 -9126052.992 22701531.290 10 0 56509 20700.00000 0 10073619.709 -8508012.041 21900639.436 10 0 56509 21600.00000 0 12655688.402 -8107151.487 20677188.103 10 0 56509 22500.00000 0 15086697.280 -7913992.740 19054709.802 10 0 56509 23400.00000 0 17304123.100 -7907423.314 17064399.706 10 0 56509 24300.00000 0 19252055.021 -8055725.363 14744535.439 10 0 56509 25200.00000 0 20883326.090 -8318059.175 12139763.911 10 0 56509 26100.00000 0 22161300.331 -8646341.182 9300266.557 10 0 56509 27000.00000 0 23061241.711 -8987439.659 6280816.586 10 0 56509 27900.00000 0 23571207.670 -9285597.748 3139743.959 10 0 56509 28800.00000 0 23692428.719 -9484983.408 -62173.897 10 0 56509 29700.00000 0 23439156.531 -9532259.757 -3262875.851 10 0 56509 30600.00000 0 22837984.695 -9379067.440 -6400213.877 10 0 56509 31500.00000 0 21926668.311 -8984313.386 -9413160.011 10 0 56509 32400.00000 0 20752489.870 -8316167.461 -12242999.893 10 0 56509 33300.00000 0 19370238.325 -7353680.008 -14834488.923 10 0 56509 34200.00000 0 17839885.222 -6087948.661 -17136947.183 10 0 56509 35100.00000 0 16224055.197 -4522781.471 -19105270.193 10 0 56509 36000.00000 0 14585397.578 -2674824.508 -20700833.917 10 0 56509 36900.00000 0 12983970.682 -573144.996 -21892274.291 10 0 56509 37800.00000 0 11474750.347 1741715.658 -22656124.117 10 0 56509 38700.00000 0 10105369.334 4219181.623 -22977293.030 10 0 56509 39600.00000 0 8914184.596 6800516.292 -22849379.517 10 0 56509 40500.00000 0 7928755.429 9421051.957 -22274807.626 10 0 56509 41400.00000 0 7164797.742 12012681.988 -21264784.802 10 0 56509 42300.00000 0 6625659.146 14506510.161 -19839081.247 10 0 56509 43200.00000 0 6302336.745 16835544.904 -18025635.191 10 0 56509 44100.00000 0 6174035.870 18937324.100 -15859992.346 10 0 56509 45000.00000 0 6209244.411 20756358.942 -13384591.628 10 0 56509 45900.00000 0 6367274.870 22246293.402 -10647912.638 10 0 56509 46800.00000 0 6600206.017 23371688.320 -7703503.448 10 0 56509 47700.00000 0 6855138.891 24109355.577 -4608909.921 10 0 56509 48600.00000 0 7076668.553 24449187.625 -1424529.710 10 0 56509 49500.00000 0 7209464.263 24394449.634 1787584.549 10 0 56509 50400.00000 0 7200846.714 23961524.747 4964947.520 10 0 56509 51300.00000 0 7003251.931 23179126.371 8045863.700 10 0 56509 52200.00000 0 6576477.139 22087013.993 10970625.599 10 0 56509 53100.00000 0 5889614.087 20734269.515 13682664.006 10 0 56509 54000.00000 0 4922589.323 19177209.081 16129628.719 10 0 56509 54900.00000 0 3667248.060 17477019.622 18264380.084 10 0 56509 55800.00000 0 2127937.849 15697219.898 20045874.031 10 0 56509 56700.00000 0 321569.185 13901051.864 21439925.972 10 0 56509 57600.00000 0 -1722848.310 12148909.963 22419841.442 10 0 56509 58500.00000 0 -3965174.104 10495913.426 22966904.004 10 0 56509 59400.00000 0 -6355569.300 8989719.941 23070713.507 10 0 56509 60300.00000 0 -8836335.032 7668668.624 22729370.218 10 0 56509 61200.00000 0 -11344082.162 6560326.630 21949502.703 10 0 56509 62100.00000 0 -13812144.863 5680497.203 20746139.631 10 0 56509 63000.00000 0 -16173140.982 5032728.444 19142427.848 10 0 56509 63900.00000 0 -18361576.076 4608342.073 17169201.315 10 0 56509 64800.00000 0 -20316386.082 4386980.649 14864407.645 10 0 56509 65700.00000 0 -21983315.589 4337650.854 12272401.212 10 0 56509 66600.00000 0 -23317034.583 4420220.411 9443114.089 10 0 56509 67500.00000 0 -24282906.532 4587307.516 6431118.268 10 0 56509 68400.00000 0 -24858334.123 4786485.241 3294594.810 10 0 56509 69300.00000 0 -25033625.479 4962709.865 94227.785 10 0 56509 70200.00000 0 -24812343.009 5060872.027 -3107957.273 10 0 56509 71100.00000 0 -24211118.006 5028363.637 -6249789.068 10 0 56509 72000.00000 0 -23258936.223 4817551.803 -9270157.540 10 0 56509 72900.00000 0 -21995921.876 4388054.039 -12110208.624 10 0 56509 73800.00000 0 -20471668.871 3708716.402 -14714502.806 10 0 56509 74700.00000 0 -18743187.609 2759208.110 -17032113.581 10 0 56509 75600.00000 0 -16872552.604 1531161.814 -19017642.859 10 0 56509 76500.00000 0 -14924349.385 28807.650 -20632131.616 10 0 56509 77400.00000 0 -12963028.437 -1730929.345 -21843845.996 10 0 56509 78300.00000 0 -11050278.348 -3718875.957 -22628921.553 10 0 56509 79200.00000 0 -9242529.974 -5894585.721 -22971851.182 10 0 56509 80100.00000 0 -7588698.195 -8207803.059 -22865805.567 10 0 56509 81000.00000 0 -6128257.746 -10600356.350 -22312778.577 10 0 56509 81900.00000 0 -4889735.264 -13008400.808 -21323553.855 10 0 56509 82800.00000 0 -3889681.795 -15364916.470 -19917492.809 10 0 56509 83700.00000 0 -3132168.974 -17602355.444 -18122148.177 10 0 56509 84600.00000 0 -2608829.328 -19655325.836 -15972711.277 10 0 56509 85500.00000 0 -2299437.408 -21463198.081 -13511304.847 10 0 56510 0.00000 0 -2173004.857 -22972522.898 -10786136.860 10 0 56510 900.00000 0 -2189340.144 -24139158.222 -7850533.376 10 0 56510 1800.00000 0 -2301003.877 -24930016.066 -4761872.421 10 0 56510 2700.00000 0 -2455573.371 -25324355.243 -1580440.832 10 0 56510 3600.00000 0 -2598117.687 -25314568.557 1631760.675 10 0 56510 4500.00000 0 -2673775.593 -24906432.333 4812239.168 10 0 56510 5400.00000 0 -2630325.450 -24118811.177 7899232.632 10 0 56510 6300.00000 0 -2420637.236 -22982833.251 10832909.894 10 0 56510 7200.00000 0 -2004902.901 -21540573.797 13556523.750 10 0 56510 8100.00000 0 -1352551.567 -19843304.830 16017495.514 10 0 56510 9000.00000 0 -443770.124 -17949386.359 18168411.289 10 0 56510 9900.00000 0 729433.057 -15921888.548 19967912.495 10 0 56510 10800.00000 0 2162664.181 -13826044.282 21381465.908 10 0 56510 11700.00000 0 3839102.000 -11726637.448 22382000.994 10 0 56510 12600.00000 0 5729978.382 -9685433.956 22950404.894 10 0 56510 13500.00000 0 7795561.141 -7758759.750 23075868.062 10 0 56510 14400.00000 0 9986598.750 -5995323.428 22756075.934 10 0 56510 15300.00000 0 12246168.169 -4434370.810 21997244.423 10 0 56510 16200.00000 0 14511851.164 -3104245.086 20813999.262 10 0 56510 17100.00000 0 16718151.460 -2021409.820 19229101.456 10 0 56510 18000.00000 0 18799055.292 -1189973.687 17273023.328 10 0 56510 18900.00000 0 20690632.000 -601735.705 14983381.792 10 0 56510 19800.00000 0 22333569.304 -236748.907 12404237.701 10 0 56510 20700.00000 0 23675539.753 -64379.623 9585272.441 10 0 56510 21600.00000 0 24673301.108 -44819.216 6580855.101 10 0 56510 22500.00000 0 25294443.361 -130986.477 3449015.777 10 0 56510 23400.00000 0 25518708.759 -270742.421 250342.769 10 0 56510 24300.00000 0 25338828.125 -409325.630 -2953176.708 10 0 56510 25200.00000 0 24760836.246 -491906.384 -6099351.019 10 0 56510 26100.00000 0 23803850.386 -466151.939 -9126991.056 10 0 56510 27000.00000 0 22499318.412 -284693.898 -11977106.094 10 0 56510 27900.00000 0 20889765.298 92608.212 -14594064.656 10 0 56510 28800.00000 0 19027088.350 696705.205 -16926696.445 10 0 56510 29700.00000 0 16970470.956 1547784.291 -18929312.329 10 0 56510 30600.00000 0 14784001.437 2654152.926 -20562620.635 10 0 56510 31500.00000 0 12534096.753 4011631.115 -21794519.785 10 0 56510 32400.00000 0 10286839.641 5603481.310 -22600749.857 10 0 56510 33300.00000 0 8105341.960 7400881.894 -22965388.471 10 0 56510 34200.00000 0 6047246.306 9363926.676 -22881179.602 10 0 56510 35100.00000 0 4162472.260 11443109.940 -22349687.637 10 0 56510 36000.00000 0 2491303.164 13581235.331 -21381272.680 10 0 56510 36900.00000 0 1062894.776 15715668.150 -19994887.141 10 0 56510 37800.00000 0 -105731.260 17780835.543 -18217697.605 10 0 56510 38700.00000 0 -1010167.287 19710868.124 -16084539.878 10 0 56510 39600.00000 0 -1658553.930 21442270.246 -13637218.960 10 0 56510 40500.00000 0 -2070973.743 22916504.998 -10923669.108 10 0 56510 41400.00000 0 -2278332.640 24082383.844 -7996992.261 10 0 56510 42300.00000 0 -2320779.660 24898159.480 -4914395.868 10 0 56510 43200.00000 0 -2245735.438 25333233.773 -1736053.041 10 0 56510 44100.00000 0 -2105616.287 25369409.657 1476090.491 10 0 56510 45000.00000 0 -1955353.270 25001635.791 4659537.355 10 0 56510 45900.00000 0 -1849813.752 24238214.936 7752462.191 10 0 56510 46800.00000 0 -1841236.145 23100469.935 10694913.251 10 0 56510 47700.00000 0 -1976787.007 21621884.205 13429968.304 10 0 56510 48600.00000 0 -2296343.442 19846755.464 15904822.968 10 0 56510 49500.00000 0 -2830593.354 17828421.289 18071791.673 10 0 56510 50400.00000 0 -3599531.965 15627132.186 19889203.654 10 0 56510 51300.00000 0 -4611415.918 13307661.511 21322179.114 10 0 56510 52200.00000 0 -5862217.081 10936751.290 22343273.206 10 0 56510 53100.00000 0 -7335597.369 8580498.883 22932978.074 10 0 56510 54000.00000 0 -9003404.820 6301790.700 23080075.813 10 0 56510 54900.00000 0 -10826670.161 4157886.612 22781837.649 10 0 56510 55800.00000 0 -12757063.048 2198252.095 22044066.982 10 0 56510 56700.00000 0 -14738749.016 462724.785 20880986.229 10 0 56510 57600.00000 0 -16710572.205 -1019911.383 19314969.656 10 0 56510 58500.00000 0 -18608475.755 -2232887.548 17376126.514 10 0 56510 59400.00000 0 -20368062.164 -3171908.389 15101741.085 10 0 56510 60300.00000 0 -21927189.804 -3845089.355 12535578.318 10 0 56510 61200.00000 0 -23228499.715 -4272375.092 9727066.149 10 0 56510 62100.00000 0 -24221768.925 -4484462.557 6730367.721 10 0 56510 63000.00000 0 -24865992.758 -4521272.609 3603358.918 10 0 56510 63900.00000 0 -25131108.761 -4430032.571 406528.915 10 0 56510 64800.00000 0 -24999288.890 -4263048.918 -2798176.785 10 0 56510 65700.00000 0 -24465743.715 -4075262.663 -5948549.590 10 0 56510 66600.00000 0 -23539002.209 -3921689.986 -8983324.640 10 0 56510 67500.00000 0 -22240652.337 -3854856.274 -11843377.742 10 0 56510 68400.00000 0 -20604550.171 -3922333.030 -14472888.445 10 0 56510 69300.00000 0 -18675527.915 -4164483.556 -16820445.378 10 0 56510 70200.00000 0 -16507652.655 -4612515.234 -18840070.724 10 0 56510 71100.00000 0 -14162107.182 -5286923.835 -20492142.033 10 0 56510 72000.00000 0 -11704780.926 -6196398.864 -21744191.324 10 0 56510 72900.00000 0 -9203671.839 -7337239.554 -22571563.903 10 0 56510 73800.00000 0 -6726208.645 -8693309.239 -22957922.165 10 0 56510 74700.00000 0 -4336606.856 -10236532.575 -22895582.821 10 0 56510 75600.00000 0 -2093370.607 -11927916.535 -22385679.646 10 0 56510 76500.00000 0 -47046.426 -13719053.209 -21438147.602 10 0 56510 77400.00000 0 1761675.719 -15554041.280 -20071528.108 10 0 56510 78300.00000 0 3303433.838 -17371744.648 -18312599.305 10 0 56510 79200.00000 0 4561176.105 -19108291.872 -16195838.989 10 0 56510 80100.00000 0 5530613.394 -20699709.431 -13762731.796 10 0 56510 81000.00000 0 6220124.928 -22084576.049 -11060935.644 10 0 56510 81900.00000 0 6650123.591 -23206584.570 -8143325.569 10 0 56510 82800.00000 0 6851910.846 -24016902.057 -5066935.861 10 0 56510 83700.00000 0 6866073.242 -24476227.975 -1891823.395 10 0 56510 84600.00000 0 6740491.965 -24556463.805 1320123.481 10 0 56510 85500.00000 0 6528053.057 -24241924.623 4506405.205 99